Latest Weather Observations for Frederick Reef

IDQ60801

Issued at 2:35 pm EST Saturday 2 August 2014 (issued every 30 minutes, with the page automatically refreshed every 10 minutes)

About weather observations | Map of weather stations | Latest weather observations for QLD | Other Formats
Station Details ID: 200701 Name: FREDERICK REEF Lat: -20.94 Lon: 154.40 Height: 4.9 m
Data from the previous 72 hours. | See also: Recent months for locations in Queensland
Date/Time
EST
Temp
°C
App
Temp
°C
Dew
Point
Rel
Hum
%
Delta-T
°C
Wind Press
QNH
hPa
Press
MSL
hPa
Rain
since 9 am
mm
Dir
 
Spd
km/h
Gust
km/h
Spd
kts
Gust
kts
02/02:30pm 23.1 - - - - SSW 24 30 13 16 1016.8 - -
02/02:00pm 23.0 - - - - SSE 6 9 3 5 1016.7 - -
02/01:30pm 23.0 - - - - SE 9 11 5 6 1016.8 - -
02/01:00pm 23.0 - - - - SE 11 11 6 6 1017.1 - -
02/12:30pm 23.0 - - - - SSE 11 13 6 7 1017.4 - -
02/12:00pm 23.1 - - - - SSE 13 15 7 8 1017.8 1017.8 -
02/11:30am 23.1 - - - - SSE 13 15 7 8 1018.3 - -
02/11:00am 23.1 - - - - SSE 11 13 6 7 1018.6 - -
02/10:30am 23.0 - - - - SE 9 11 5 6 1018.9 - -
02/10:00am 23.1 - - - - SE 11 13 6 7 1019.2 - -
02/09:30am 23.2 - - - - SE 11 13 6 7 1019.2 - -
02/09:00am 22.9 - - - - ESE 11 13 6 7 1019.2 1019.2 -
02/08:30am 23.1 - - - - ESE 11 13 6 7 1018.9 - -
02/08:00am 23.0 - - - - ESE 11 15 6 8 1018.6 - -
02/07:30am 23.0 - - - - ESE 13 15 7 8 1018.3 - -
02/07:00am 22.9 - - - - E 11 11 6 6 1018.2 - -
02/06:30am 22.5 - - - - ESE 7 9 4 5 1018.0 - -
02/06:00am 22.7 - - - - E 7 9 4 5 1017.8 1017.8 -
02/05:30am 22.6 - - - - WSW 7 9 4 5 1017.6 - -
02/05:00am 22.9 - - - - WSW 7 11 4 6 1017.2 - -
02/04:30am 22.6 - - - - WSW 9 11 5 6 1017.1 - -
02/04:00am 22.8 - - - - WSW 7 9 4 5 1016.9 - -
02/03:30am 22.9 - - - - WSW 4 9 2 5 1016.8 - -
02/03:00am 22.7 - - - - WSW 9 11 5 6 1017.0 - -
02/02:30am 22.6 - - - - WSW 7 9 4 5 1017.2 - -
02/02:00am 22.7 - - - - SW 11 13 6 7 1017.4 - -
02/01:30am 22.6 - - - - S 15 17 8 9 1017.7 - -
02/01:00am 22.7 - - - - S 15 17 8 9 1017.8 - -
02/12:30am 23.0 - - - - SW 11 13 6 7 1018.2 - -
02/12:00am 22.8 - - - - SW 13 15 7 8 1018.2 - -
 
Date/Time
EST
Temp
°C
App
Temp
°C
Dew
Point
Rel
Hum
%
Delta-T
°C
Wind Press
QNH
hPa
Press
MSL
hPa
Rain
since 9 am
mm
Dir
 
Spd
km/h
Gust
km/h
Spd
kts
Gust
kts
01/11:30pm 22.8 - - - - SW 13 15 7 8 1018.1 - -
01/11:00pm 23.0 - - - - S 15 17 8 9 1018.1 - -
01/10:30pm 23.0 - - - - SW 11 13 6 7 1018.1 - -
01/10:00pm 23.0 - - - - WSW 7 9 4 5 1018.1 - -
01/09:30pm 23.0 - - - - SW 11 13 6 7 1018.0 - -
01/09:00pm 23.0 - - - - WSW 9 11 5 6 1018.0 - -
01/08:30pm 22.8 - - - - SW 11 15 6 8 1017.7 - -
01/08:00pm 22.8 - - - - WSW 7 11 4 6 1017.5 - -
01/07:30pm 22.8 - - - - CALM 0 7 0 4 1017.4 - -
01/07:00pm 22.8 - - - - CALM 0 0 0 0 1017.2 - -
01/06:30pm 22.6 - - - - CALM 0 0 0 0 1016.9 - -
01/06:00pm 22.5 - - - - WSW 7 9 4 5 1016.7 - -
01/05:30pm 22.4 - - - - SSW 7 9 4 5 1016.4 - -
01/05:00pm 22.3 - - - - W 11 15 6 8 1016.4 - -
01/04:30pm 22.9 - - - - ESE 7 9 4 5 1016.3 - -
01/04:00pm 22.9 - - - - ESE 11 15 6 8 1016.2 - -
01/03:30pm 23.0 - - - - E 11 13 6 7 1016.0 - -
01/03:00pm 23.2 - - - - E 11 13 6 7 1015.8 1015.8 -
01/02:30pm 23.3 - - - - E 13 15 7 8 1015.9 - -
01/02:00pm 23.7 - - - - ENE 11 13 6 7 1016.2 - -
01/01:30pm 23.5 - - - - ENE 13 15 7 8 1016.4 - -
01/01:00pm 23.4 - - - - ENE 13 17 7 9 1016.6 - -
01/12:30pm 23.0 - - - - ENE 11 15 6 8 1016.9 - -
01/12:00pm 23.1 - - - - ENE 13 17 7 9 1017.2 - -
01/11:30am 23.0 - - - - E 13 17 7 9 1017.7 - -
01/11:00am 22.9 - - - - E 17 19 9 10 1017.8 - -
01/10:30am 23.0 - - - - E 15 19 8 10 1018.0 - -
01/10:00am 23.2 - - - - ENE 15 19 8 10 1018.2 - -
01/09:30am 23.2 - - - - ENE 15 20 8 11 1018.4 - -
01/09:00am 23.0 - - - - ENE 19 20 10 11 1018.5 - -
01/08:30am 23.1 - - - - ENE 20 24 11 13 1018.5 - -
01/08:00am 23.0 - - - - ENE 17 20 9 11 1018.3 - -
01/07:30am 22.9 - - - - ENE 17 20 9 11 1018.1 - -
01/07:00am 22.5 - - - - ENE 15 19 8 10 1018.0 - -
01/06:30am 22.6 - - - - ENE 17 19 9 10 1017.7 - -
01/06:00am 22.4 - - - - NE 17 20 9 11 1017.5 1017.5 -
01/05:30am 22.3 - - - - NE 17 20 9 11 1017.0 - -
01/05:00am 22.1 - - - - NNE 15 19 8 10 1016.9 - -
01/04:30am 22.1 - - - - NE 20 22 11 12 1016.3 - -
01/04:00am 22.5 - - - - NE 24 28 13 15 1016.4 - -
01/03:30am 22.1 - - - - ENE 28 30 15 16 1016.4 - -
01/03:00am 22.1 - - - - NE 24 26 13 14 1016.9 - -
01/02:30am 22.0 - - - - NE 24 28 13 15 1017.0 - -
01/02:00am 22.2 - - - - NE 24 28 13 15 1017.4 - -
01/01:30am 22.2 - - - - ENE 24 26 13 14 1017.6 - -
01/01:00am 22.5 - - - - ENE 24 28 13 15 1017.8 - -
01/12:30am 22.5 - - - - ENE 30 33 16 18 1017.9 - -
01/12:00am 22.8 - - - - ENE 24 28 13 15 1018.3 - -
 
Date/Time
EST
Temp
°C
App
Temp
°C
Dew
Point
Rel
Hum
%
Delta-T
°C
Wind Press
QNH
hPa
Press
MSL
hPa
Rain
since 9 am
mm
Dir
 
Spd
km/h
Gust
km/h
Spd
kts
Gust
kts
31/11:30pm 22.6 - - - - ENE 24 28 13 15 1018.3 - -
31/11:00pm 22.4 - - - - NE 26 30 14 16 1018.3 - -
31/10:30pm 22.3 - - - - ENE 26 30 14 16 1018.6 - -
31/10:00pm 22.5 - - - - ENE 24 28 13 15 1018.7 - -
31/09:30pm 22.3 - - - - ENE 24 30 13 16 1018.9 - -
31/09:00pm 22.2 - - - - ENE 26 30 14 16 1019.0 - -
31/08:00pm 22.0 - - - - E 26 30 14 16 1018.6 - -
31/07:30pm 22.0 - - - - ENE 22 26 12 14 1018.4 - -
31/06:30pm 21.6 - - - - ESE 17 19 9 10 1018.1 - -
31/06:00pm 19.7 - - - - E 19 24 10 13 1017.9 - -
31/05:30pm 19.8 - - - - E 24 28 13 15 1017.9 - -
31/05:00pm 20.2 - - - - SE 20 28 11 15 1017.7 - -
31/04:30pm 20.5 - - - - SSE 30 33 16 18 1017.4 - -
31/04:00pm 20.9 - - - - S 24 28 13 15 1017.3 - -
31/03:30pm 20.4 - - - - SSE 22 26 12 14 1017.3 - -
31/03:00pm 20.9 - - - - S 20 26 11 14 1017.2 1017.2 -
31/02:30pm 20.9 - - - - S 17 20 9 11 1017.2 - -
31/02:00pm 21.1 - - - - SSW 13 15 7 8 1017.6 - -
31/01:30pm 21.8 - - - - SSW 19 22 10 12 1017.7 - -
31/01:00pm 21.8 - - - - NNW 17 20 9 11 1018.1 - -
31/12:30pm 21.4 - - - - WNW 13 17 7 9 1018.8 - -
31/12:00pm 21.6 - - - - S 13 17 7 9 1019.1 1019.1 -
31/11:30am 21.9 - - - - N 11 15 6 8 1019.6 - -
31/11:00am 20.6 - - - - ENE 20 35 11 19 1020.0 - -
31/10:30am 20.8 - - - - NE 41 44 22 24 1019.9 - -
31/10:11am 22.1 - - - - NE 41 43 22 23 1019.8 - -
31/10:00am 22.5 - - - - NE 20 24 11 13 1020.1 - -
31/09:30am 21.3 - - - - N 30 33 16 18 1020.4 - -
31/09:00am 20.6 - - - - NNE 39 44 21 24 1020.3 1020.3 -
31/08:47am 20.8 - - - - NNE 39 43 21 23 1020.4 - -
31/08:30am 20.7 - - - - E 26 35 14 19 1020.4 - -
31/08:00am 22.5 - - - - ESE 20 26 11 14 1020.1 - -
31/07:30am 22.7 - - - - E 22 26 12 14 1019.8 - -
31/07:00am 22.6 - - - - E 28 32 15 17 1019.5 - -
31/06:30am 22.8 - - - - E 32 35 17 19 1019.4 - -
31/06:00am 22.5 - - - - E 35 41 19 22 1019.3 1019.3 -
31/05:30am 22.6 - - - - E 32 39 17 21 1019.1 - -
31/05:00am 22.6 - - - - E 26 32 14 17 1019.0 - -
31/04:30am 22.5 - - - - E 32 35 17 19 1018.8 - -
31/04:00am 22.6 - - - - E 30 35 16 19 1018.7 - -
31/03:30am 22.5 - - - - E 28 32 15 17 1018.7 - -
31/03:00am 22.4 - - - - E 32 35 17 19 1018.7 - -
31/02:30am 22.2 - - - - E 32 35 17 19 1018.8 - -
31/02:00am 22.4 - - - - ENE 32 35 17 19 1019.1 - -
31/01:30am 22.4 - - - - E 32 35 17 19 1019.2 - -
31/01:00am 22.5 - - - - ENE 32 37 17 20 1019.3 - -
31/12:30am 22.6 - - - - ENE 32 35 17 19 1019.6 - -
31/12:00am 22.7 - - - - E 35 39 19 21 1019.8 - -
 
Date/Time
EST
Temp
°C
App
Temp
°C
Dew
Point
Rel
Hum
%
Delta-T
°C
Wind Press
QNH
hPa
Press
MSL
hPa
Rain
since 9 am
mm
Dir
 
Spd
km/h
Gust
km/h
Spd
kts
Gust
kts
30/11:30pm 22.7 - - - - E 35 41 19 22 1019.8 - -
30/11:00pm 22.5 - - - - ENE 37 43 20 23 1020.0 - -
30/10:30pm 22.4 - - - - E 37 43 20 23 1020.3 - -
30/10:26pm 22.5 - - - - E 37 43 20 23 1020.4 - -
30/10:00pm 21.6 - - - - ESE 26 33 14 18 1020.7 - -
30/09:30pm 21.6 - - - - SE 32 35 17 19 1020.8 - -
30/09:00pm 21.7 - - - - SSE 32 35 17 19 1020.8 - -
30/08:30pm 21.6 - - - - SSE 33 41 18 22 1020.6 - -
30/08:00pm 21.7 - - - - SSE 33 39 18 21 1020.2 - -
30/07:30pm 21.9 - - - - SE 32 37 17 20 1020.1 - -
30/07:00pm 22.5 - - - - E 28 32 15 17 1019.8 - -
30/06:30pm 22.3 - - - - E 30 33 16 18 1019.7 - -
30/06:00pm 22.2 - - - - E 28 32 15 17 1019.4 - -
30/05:30pm 21.9 - - - - ESE 26 33 14 18 1019.3 - -
30/05:00pm 22.0 - - - - ESE 30 35 16 19 1019.2 - -
30/04:30pm 22.4 - - - - E 22 28 12 15 1018.9 - -
30/04:00pm 22.6 - - - - E 22 26 12 14 1018.9 - -
30/03:30pm 22.7 - - - - E 19 22 10 12 1018.9 - -
30/03:00pm 22.6 - - - - E 19 24 10 13 1018.8 - -

Other Formats:

Comma delimited format used in spreadsheet applications
http://www.bom.gov.au/fwo/IDQ60801/IDQ60801.94393.axf

JavaScript Object Notation format (JSON) in row-major order
http://www.bom.gov.au/fwo/IDQ60801/IDQ60801.94393.json